timestamp,surface_pressure_avg,surface_temp_avg,battery_voltage,lat,long
2022-01-18 00:09:00+00:00,312.863,2.6,12.65,47.84626,-54.09684
2022-01-18 00:19:00+00:00,298.1263,2.53,12.57,47.84626,-54.09684
2022-01-18 00:29:00+00:00,292.3881,2.6,12.57,47.84626,-54.09684
2022-01-18 00:39:00+00:00,286.3447,2.7,12.57,47.84626,-54.09684
2022-01-18 00:49:00+00:00,272.0864,2.6,12.57,47.84626,-54.09684
2022-01-18 00:59:00+00:00,277.5164,2.51,12.57,47.84626,-54.09684
2022-01-18 01:09:00+00:00,280.8247,2.6,12.57,47.84626,-54.09684
2022-01-18 01:19:00+00:00,273.6664,2.1,12.57,47.84626,-54.09684
2022-01-18 01:29:00+00:00,274.3864,1.89,12.57,47.84626,-54.09684
2022-01-18 01:39:00+00:00,276.5914,2.9,12.57,47.84626,-54.09684
2022-01-18 01:49:00+00:00,275.5497,2.8,12.57,47.84626,-54.09684
2022-01-18 01:59:00+00:00,274.0314,2.3,12.57,47.84626,-54.09684
2022-01-18 02:09:00+00:00,269.5031,2.22,12.57,47.84626,-54.09684
2022-01-18 02:19:01+00:00,253.8164,2.78,12.57,47.84626,-54.09684
2022-01-18 02:29:01+00:00,257.4048,2.86,12.57,47.84626,-54.09684
2022-01-18 02:39:01+00:00,272.4531,2.8,12.57,47.84626,-54.09684
2022-01-18 02:49:01+00:00,268.8231,2.7,12.57,47.84626,-54.09684
2022-01-18 02:59:01+00:00,255.3548,2.47,12.57,47.84626,-54.09684
2022-01-18 03:09:01+00:00,257.8948,2.84,12.57,47.84626,-54.09684
2022-01-18 03:19:00+00:00,252.9648,2.9,12.57,47.84626,-54.09684
2022-01-18 03:29:00+00:00,235.4631,2.4,12.57,47.84626,-54.09684
2022-01-18 03:39:00+00:00,229.8664,2.53,12.57,47.84626,-54.09684
2022-01-18 03:49:00+00:00,233.2564,2.7,12.57,47.84626,-54.09684
2022-01-18 03:59:00+00:00,225.5698,2.6,12.57,47.84626,-54.09684
2022-01-18 04:09:00+00:00,213.6065,2.7,12.57,47.84626,-54.09684
2022-01-18 04:19:00+00:00,218.7831,2.78,12.57,47.84626,-54.09684
2022-01-18 04:29:00+00:00,218.4364,2.78,12.57,47.84626,-54.09684
2022-01-18 04:39:00+00:00,213.6564,2.57,12.57,47.84626,-54.09684
2022-01-18 04:49:00+00:00,221.7398,2.66,12.57,47.84626,-54.09684
2022-01-18 04:59:00+00:00,224.0314,2.88,12.57,47.84626,-54.09684
2022-01-18 05:09:00+00:00,202.3298,2.8,12.57,47.84626,-54.09684
2022-01-18 05:19:01+00:00,181.7481,2.7,12.57,47.84626,-54.09684
2022-01-18 05:29:01+00:00,184.5315,2.5,12.57,47.84626,-54.09684
2022-01-18 05:39:01+00:00,195.7498,2.5,12.57,47.84626,-54.09684
2022-01-18 05:49:01+00:00,195.8898,2.6,12.57,47.84626,-54.09684
2022-01-18 05:59:01+00:00,197.0298,2.5,12.57,47.84626,-54.09684
2022-01-18 06:09:01+00:00,204.0564,2.5,12.57,47.84626,-54.09684
2022-01-18 06:19:00+00:00,200.2731,2.54,12.57,47.84626,-54.09684
2022-01-18 06:29:00+00:00,195.8631,2.6,12.57,47.84626,-54.09684
2022-01-18 06:39:00+00:00,202.6398,2.5,12.57,47.84626,-54.09684
2022-01-18 06:49:00+00:00,213.8348,2.5,12.57,47.84626,-54.09684
2022-01-18 06:59:00+00:00,215.6498,2.55,12.57,47.84626,-54.09684
2022-01-18 07:09:00+00:00,212.5798,2.59,12.57,47.84626,-54.09684
2022-01-18 07:19:00+00:00,218.1714,2.5,12.57,47.84626,-54.09684
2022-01-18 07:29:00+00:00,225.5531,2.51,12.57,47.84626,-54.09684
2022-01-18 07:39:00+00:00,228.3131,2.6,12.57,47.84626,-54.09684
2022-01-18 07:49:00+00:00,240.5031,2.6,12.57,47.84626,-54.09684
2022-01-18 07:59:00+00:00,250.4998,2.6,12.57,47.84626,-54.09684
2022-01-18 08:09:00+00:00,255.2414,2.6,12.57,47.84626,-54.09684
2022-01-18 08:19:00+00:00,259.3281,2.6,12.57,47.84626,-54.09684
2022-01-18 08:29:00+00:00,269.4131,2.6,12.57,47.84626,-54.09684
2022-01-18 08:39:00+00:00,275.4998,2.6,12.57,47.84626,-54.09684
2022-01-18 08:49:00+00:00,276.1031,2.61,12.57,47.84626,-54.09684
2022-01-18 08:59:00+00:00,275.1931,2.6,12.57,47.84626,-54.09684
2022-01-18 09:09:00+00:00,289.288,2.6,12.57,47.84626,-54.09684
2022-01-18 09:19:00+00:00,292.9147,2.5,12.57,47.84626,-54.09684
2022-01-18 09:29:00+00:00,294.7281,2.5,12.57,47.84626,-54.09684
2022-01-18 09:39:00+00:00,311.653,2.5,12.57,47.84626,-54.09684
2022-01-18 09:49:00+00:00,336.2714,2.5,12.57,47.84626,-54.09684
2022-01-18 09:59:00+00:00,335.2047,2.5,12.57,47.84626,-54.09684
2022-01-18 10:09:00+00:00,336.8513,2.5,12.57,47.84626,-54.09684
2022-01-18 10:19:00+00:00,350.5997,2.5,12.57,47.84626,-54.09684
2022-01-18 10:29:00+00:00,359.4046,2.5,12.57,47.84626,-54.09684
2022-01-18 10:39:00+00:00,352.9329,2.5,12.57,47.84626,-54.09684
2022-01-18 10:49:00+00:00,351.973,2.5,12.57,47.84626,-54.09684
2022-01-18 10:59:00+00:00,361.5129,2.5,12.57,47.84626,-54.09684
2022-01-18 11:09:00+00:00,362.1296,2.57,12.57,47.84626,-54.09684
2022-01-18 11:19:00+00:00,359.1747,2.59,12.57,47.84626,-54.09684
2022-01-18 11:29:00+00:00,360.6663,2.56,12.57,47.84626,-54.09684
2022-01-18 11:39:00+00:00,368.9446,2.59,12.57,47.84626,-54.09684
2022-01-18 11:49:00+00:00,370.9912,2.6,12.57,47.84626,-54.09684
2022-01-18 11:59:00+00:00,365.8529,2.6,12.57,47.84626,-54.09684
2022-01-18 12:09:00+00:00,373.0746,2.6,12.57,47.84626,-54.09684
2022-01-18 12:19:01+00:00,374.1579,2.6,12.57,47.84626,-54.09684
2022-01-18 12:29:01+00:00,362.528,2.6,12.57,47.84626,-54.09684
2022-01-18 12:39:01+00:00,366.1229,2.59,12.57,47.84626,-54.09684
2022-01-18 12:49:01+00:00,364.9847,2.6,12.57,47.84626,-54.09684
2022-01-18 12:59:01+00:00,366.3046,2.61,12.57,47.84626,-54.09684
2022-01-18 13:09:01+00:00,370.45300000000003,2.6,12.57,47.84626,-54.09684
2022-01-18 13:19:00+00:00,366.153,2.57,12.57,47.84626,-54.09684
2022-01-18 13:29:00+00:00,360.6413,2.6,12.57,47.84626,-54.09684
2022-01-18 13:39:00+00:00,371.8679,2.6,12.57,47.84626,-54.09684
2022-01-18 13:49:00+00:00,386.293,2.58,12.57,47.84626,-54.09684
2022-01-18 13:59:00+00:00,379.5779,2.6,12.57,47.84626,-54.09684
2022-01-18 14:09:00+00:00,369.1262,2.6,12.57,47.84626,-54.09684
2022-01-18 14:19:00+00:00,376.5096,2.6,12.65,47.84626,-54.09684
2022-01-18 14:29:00+00:00,375.7128,2.6,12.65,47.84626,-54.09684
2022-01-18 14:39:00+00:00,350.9979,2.62,12.65,47.84626,-54.09684
2022-01-18 14:49:00+00:00,339.2563,2.65,12.65,47.84626,-54.09684
2022-01-18 14:59:00+00:00,346.0463,2.6,12.65,47.84626,-54.09684
2022-01-18 15:09:00+00:00,339.5197,2.62,12.65,47.84626,-54.09684
2022-01-18 15:19:00+00:00,320.013,2.68,12.65,47.84626,-54.09684
2022-01-18 15:29:00+00:00,307.6213,2.7,12.65,47.84626,-54.09684
2022-01-18 15:39:00+00:00,304.6381,2.68,12.65,47.84626,-54.09684
2022-01-18 15:49:00+00:00,289.4047,2.68,12.65,47.84626,-54.09684
2022-01-18 15:59:00+00:00,280.8147,2.7,12.65,47.84626,-54.09684
2022-01-18 16:09:00+00:00,278.4697,2.7,12.65,47.84626,-54.09684
2022-01-18 16:19:00+00:00,271.9381,2.7,12.65,47.84626,-54.09684
2022-01-18 16:29:00+00:00,252.1297,2.67,12.65,47.84626,-54.09684
2022-01-18 16:39:00+00:00,235.4531,2.62,12.65,47.84626,-54.09684
2022-01-18 16:49:00+00:00,229.9598,2.62,12.65,47.84626,-54.09684
2022-01-18 16:59:00+00:00,229.6281,2.66,12.65,47.84626,-54.09684
2022-01-18 17:09:00+00:00,226.8781,2.68,12.65,47.84626,-54.09684
2022-01-18 17:19:00+00:00,221.6381,2.69,12.65,47.84626,-54.09684
2022-01-18 17:29:00+00:00,216.8965,2.7,12.65,47.84626,-54.09684
2022-01-18 17:39:00+00:00,218.5915,2.7,12.65,47.84626,-54.09684
2022-01-18 17:49:00+00:00,222.5648,2.7,12.65,47.84626,-54.09684
2022-01-18 17:59:00+00:00,225.1648,2.7,12.65,47.84626,-54.09684
2022-01-18 18:09:00+00:00,226.2231,2.7,12.65,47.84626,-54.09684
2022-01-18 18:19:00+00:00,222.0298,2.77,12.65,47.84626,-54.09684
2022-01-18 18:29:00+00:00,220.5881,2.8,12.65,47.84626,-54.09684
2022-01-18 18:39:00+00:00,224.2714,2.8,12.65,47.84626,-54.09684
2022-01-18 18:49:00+00:00,226.3831,2.8,12.65,47.84626,-54.09684
2022-01-18 18:59:00+00:00,229.6098,2.8,12.65,47.84626,-54.09684
2022-01-18 19:09:00+00:00,240.3631,2.8,12.65,47.84626,-54.09684
2022-01-18 19:19:00+00:00,255.3231,2.8,12.65,47.84626,-54.09684
2022-01-18 19:29:00+00:00,256.9681,2.8,12.65,47.84626,-54.09684
2022-01-18 19:39:00+00:00,243.6964,2.8,12.65,47.84626,-54.09684
2022-01-18 19:49:00+00:00,233.6264,2.85,12.65,47.84626,-54.09684
2022-01-18 19:59:00+00:00,240.1165,2.87,12.65,47.84626,-54.09684
2022-01-18 20:09:00+00:00,255.3664,2.89,12.65,47.84626,-54.09684
2022-01-18 20:19:00+00:00,262.2681,2.89,12.65,47.84626,-54.09684
2022-01-18 20:29:00+00:00,251.4631,2.9,12.65,47.84626,-54.09684
2022-01-18 20:39:00+00:00,247.463,2.9,12.65,47.84626,-54.09684
2022-01-18 20:49:00+00:00,264.9964,2.9,12.65,47.84626,-54.09684
2022-01-18 20:59:00+00:00,277.7347,2.9,12.65,47.84626,-54.09684
2022-01-18 21:09:00+00:00,279.5447,2.9,12.65,47.84626,-54.09684
2022-01-18 21:19:00+00:00,276.9347,2.9,12.65,47.84626,-54.09684
2022-01-18 21:29:00+00:00,275.0847,2.9,12.65,47.84626,-54.09684
2022-01-18 21:39:00+00:00,278.5064,2.9,12.65,47.84626,-54.09684
2022-01-18 21:49:00+00:00,280.1231,2.9,12.65,47.84626,-54.09684
2022-01-18 21:59:00+00:00,277.2147,2.9,12.65,47.84626,-54.09684
2022-01-18 22:09:00+00:00,273.2531,2.9,12.65,47.84626,-54.09684
2022-01-18 22:19:00+00:00,285.8698,2.9,12.65,47.84626,-54.09684
2022-01-18 22:29:00+00:00,300.123,2.9,12.65,47.84626,-54.09684
2022-01-18 22:39:00+00:00,299.6997,2.9,12.65,47.84626,-54.09684
2022-01-18 22:49:00+00:00,296.8663,2.9,12.65,47.84626,-54.09684
2022-01-18 22:59:00+00:00,298.0997,2.9,12.65,47.84626,-54.09684
2022-01-18 23:09:00+00:00,306.8747,2.9,12.65,47.84626,-54.09684
2022-01-18 23:19:01+00:00,312.0647,2.9,12.65,47.84626,-54.09684
2022-01-18 23:29:01+00:00,320.6947,2.9,12.65,47.84626,-54.09684
2022-01-18 23:39:01+00:00,329.5514,2.9,12.65,47.84626,-54.09684
2022-01-18 23:49:01+00:00,324.8179,2.9,12.65,47.84626,-54.09684
2022-01-18 23:59:01+00:00,309.9914,2.9,12.65,47.84626,-54.09684
